Weather History for KMIW - March, 2014

Change the Weather History Date:

Wednesday, March 26, 2014

  Actual Average Record
Temperature  
Mean Temperature 31 °F 41 °F  
Max Temperature 48 °F 52 °F - ()
Min Temperature 14 °F 30 °F - ()
Degree Days  
Heating Degree Days 34 24  
Month to date heating degree days 978 780  
Since 1 July heating degree days 7093 6183  
Cooling Degree Days 0 0  
Month to date cooling degree days 0 0  
Year to date cooling degree days 0 0  
Moisture  
Dew Point 18 °F    
Average Humidity 57    
Maximum Humidity 82    
Minimum Humidity 31    
Precipitation  
Precipitation 0.00 in 0.08 in - ()
Month to date precipitation 0.13 1.53  
Sea Level Pressure  
Sea Level Pressure 29.99 in    
Wind  
Wind Speed 19 mph (SSE)    
Max Wind Speed 36 mph    
Max Gust Speed 46 mph    
Visibility 10 miles    
Events      
T = Trace of Precipitation, MM = Missing Value Source: NWS Daily Summary

Daily Weather History Graph

Daily Weather History Graph

Search for Another Location

Airport or City:

Trip Planner

Search our weather history database for the weather conditions in past years. The results will help you decide how hot, cold, wet, or windy it might be!

Date:

Astronomy

Mar. 26, 2014 Rise Set
Actual Time 7:04 AM CDT 7:30 PM CDT
Civil Twilight 6:36 AM CDT 7:58 PM CDT
Nautical Twilight 6:03 AM CDT 8:31 PM CDT
Astronomical Twilight 5:29 AM CDT 9:05 PM CDT
Moon 4:18 AM CDT (3/26) 3:05 PM CDT (3/26)
Length of Visible Light 13h 22m
Length of Day
12h 26m
Waning Crescent, 21% of the Moon is Illuminated
Mar 26
Waning Crescent
Mar 30
New
Apr 7
First Quarter
Apr 15
Full
Apr 22
Last Quarter

Hourly Weather History & Observations

Time (CDT) Temp. Windchill Dew Point Humidity Pressure Visibility Wind Dir Wind Speed Gust Speed Precip Events Conditions
12:53 AM 18.0 °F 9.8 °F 12.0 °F 78% 30.25 in 10.0 mi SSE 5.8 mph - N/A   Clear
1:53 AM 16.0 °F 7.4 °F 10.9 °F 81% 30.25 in 10.0 mi SE 5.8 mph - N/A   Clear
2:53 AM 17.1 °F 5.0 °F 10.9 °F 77% 30.24 in 10.0 mi SSE 10.4 mph - N/A   Clear
3:53 AM 17.1 °F 6.6 °F 10.9 °F 77% 30.22 in 10.0 mi SSE 8.1 mph - N/A   Clear
4:53 AM 16.0 °F 2.9 °F 10.9 °F 81% 30.20 in 10.0 mi SE 11.5 mph - N/A   Partly Cloudy
5:53 AM 18.0 °F 4.8 °F 12.0 °F 78% 30.21 in 10.0 mi SE 12.7 mph - N/A   Overcast
6:53 AM 18.0 °F 6.1 °F 12.0 °F 78% 30.20 in 10.0 mi SE 10.4 mph - N/A   Partly Cloudy
7:53 AM 19.9 °F 6.7 °F 12.9 °F 74% 30.18 in 10.0 mi SSE 13.8 mph - N/A   Clear
8:53 AM 23.0 °F 9.6 °F 15.1 °F 72% 30.16 in 10.0 mi SSE 16.1 mph - N/A   Clear
9:53 AM 30.0 °F 18.3 °F 16.0 °F 56% 30.14 in 10.0 mi SSE 17.3 mph - N/A   Partly Cloudy
10:53 AM 35.1 °F 23.3 °F 16.0 °F 46% 30.12 in 10.0 mi SSE 23.0 mph - N/A   Mostly Cloudy
11:53 AM 37.9 °F 26.6 °F 16.0 °F 41% 30.07 in 10.0 mi SSE 25.3 mph 31.1 mph N/A   Partly Cloudy
12:53 PM 41.0 °F 30.7 °F 16.0 °F 36% 30.01 in 10.0 mi SSE 25.3 mph 33.4 mph N/A   Scattered Clouds
1:53 PM 44.1 °F 34.8 °F 18.0 °F 35% 29.94 in 10.0 mi SSE 25.3 mph 38.0 mph N/A   Partly Cloudy
2:53 PM 46.9 °F - 19.0 °F 33% 29.89 in 10.0 mi SSE 26.5 mph 39.1 mph N/A   Partly Cloudy
3:53 PM 46.9 °F - 18.0 °F 32% 29.86 in 10.0 mi SSE 27.6 mph 42.6 mph N/A   Overcast
4:53 PM 46.9 °F - 19.0 °F 33% 29.83 in 10.0 mi SSE 23.0 mph 35.7 mph N/A   Overcast
5:53 PM 48.0 °F - 19.9 °F 33% 29.81 in 10.0 mi SSE 24.2 mph 32.2 mph N/A   Overcast
6:53 PM 46.0 °F 38.5 °F 21.0 °F 37% 29.79 in 10.0 mi SSE 19.6 mph - N/A   Overcast
7:53 PM 44.1 °F 35.9 °F 21.9 °F 42% 29.77 in 10.0 mi SSE 19.6 mph 27.6 mph N/A   Overcast
8:53 PM 43.0 °F 34.5 °F 23.0 °F 45% 29.76 in 10.0 mi SSE 19.6 mph 25.3 mph N/A   Overcast
9:53 PM 44.1 °F 35.4 °F 23.0 °F 43% 29.74 in 10.0 mi SSE 21.9 mph 28.8 mph N/A   Overcast
10:53 PM 44.1 °F 36.8 °F 26.1 °F 49% 29.74 in 10.0 mi South 16.1 mph - N/A   Overcast
11:20 PM 46.0 °F 37.4 °F 36.0 °F 68% 29.72 in 10.0 mi SSW 25.3 mph 44.9 mph N/A   Overcast
11:53 PM 43.0 °F 33.3 °F 37.9 °F 82% 29.74 in 9.0 mi South 25.3 mph 38.0 mph N/A   Overcast